| time (UTC) | temp F | wind direction | speed MPH | gust MPH | rain 1hr in | rain 24hr in | rain mn in | humidity % | barometer mb |
| 20260904183518 | 60 | 29 | 4.0 | 10.0 | 0.00 | 0.01 | 0.00 | 54 | 1016.5 |
| 20260904182559 | 60 | 29 | 4.0 | 12.0 | 0.00 | 0.01 | 0.00 | 56 | 1016.4 |
| 20260904181519 | 59 | 18 | 5.0 | 11.0 | 0.00 | 0.01 | 0.00 | 57 | 1016.5 |
| 20260904180522 | 59 | 18 | 4.0 | 10.0 | 0.00 | 0.01 | 0.00 | 57 | 1016.4 |
| 20260904175522 | 58 | 15 | 4.0 | 10.0 | 0.00 | 0.01 | 0.00 | 60 | 1016.5 |
| 20260904174542 | 57 | 356 | 4.0 | 9.0 | 0.00 | 0.01 | 0.00 | 63 | 1016.5 |
| 20260904173541 | 57 | 7 | 5.0 | 10.0 | 0.00 | 0.01 | 0.00 | 63 | 1016.5 |
| 20260904172544 | 57 | 2 | 4.0 | 6.0 | 0.00 | 0.01 | 0.00 | 63 | 1016.5 |
| 20260904171524 | 57 | 30 | 6.0 | 10.0 | 0.00 | 0.01 | 0.00 | 63 | 1016.5 |
| 20260904170519 | 57 | 13 | 5.0 | 10.0 | 0.00 | 0.01 | 0.00 | 64 | 1016.4 |
| 20260904165518 | 56 | 3 | 4.0 | 9.0 | 0.00 | 0.01 | 0.00 | 66 | 1016.5 |
| 20260904164523 | 56 | 14 | 4.0 | 9.0 | 0.00 | 0.01 | 0.00 | 66 | 1016.4 |
| 20260904163523 | 56 | 13 | 4.0 | 8.0 | 0.00 | 0.01 | 0.00 | 67 | 1016.3 |
| 20260904162520 | 56 | 6 | 5.0 | 13.0 | 0.00 | 0.01 | 0.00 | 66 | 1016.4 |
| 20260904161517 | 56 | 5 | 4.0 | 7.0 | 0.00 | 0.01 | 0.00 | 68 | 1016.4 |
| 20260904160518 | 55 | 7 | 3.0 | 8.0 | 0.00 | 0.01 | 0.00 | 69 | 1016.3 |
| 20260904155538 | 54 | 9 | 4.0 | 7.0 | 0.00 | 0.01 | 0.00 | 70 | 1016.2 |
| 20260904154517 | 54 | 357 | 4.0 | 10.0 | 0.00 | 0.01 | 0.00 | 70 | 1016.0 |
| 20260904153518 | 54 | 5 | 4.0 | 9.0 | 0.00 | 0.01 | 0.00 | 70 | 1015.9 |
| 20260904152520 | 54 | 4 | 4.0 | 8.0 | 0.00 | 0.01 | 0.00 | 70 | 1015.8 |
| 20260904151518 | 54 | 26 | 6.0 | 12.0 | 0.00 | 0.01 | 0.00 | 71 | 1015.7 |
| 20260904150540 | 54 | 359 | 5.0 | 10.0 | 0.00 | 0.01 | 0.00 | 72 | 1015.8 |
| 20260904145520 | 54 | 0 | 4.0 | 12.0 | 0.00 | 0.01 | 0.00 | 73 | 1015.7 |
| 20260904144519 | 53 | 347 | 4.0 | 8.0 | 0.00 | 0.01 | 0.00 | 73 | 1015.6 |
| 20260904143520 | 53 | 350 | 4.0 | 8.0 | 0.00 | 0.01 | 0.00 | 75 | 1015.5 |
| 20260904142520 | 53 | 355 | 4.0 | 8.0 | 0.00 | 0.01 | 0.00 | 76 | 1015.3 |
| 20260904141519 | 53 | 0 | 4.0 | 8.0 | 0.00 | 0.01 | 0.00 | 76 | 1015.2 |
| 20260904140619 | 54 | 4 | 4.0 | 11.0 | 0.00 | 0.01 | 0.00 | 77 | 1015.0 |
| 20260904135519 | 54 | 0 | 4.0 | 8.0 | 0.00 | 0.01 | 0.00 | 76 | 1014.9 |
| 20260904134519 | 54 | 17 | 5.0 | 11.0 | 0.00 | 0.01 | 0.00 | 76 | 1014.7 |
| 20260904133519 | 54 | 12 | 5.0 | 8.0 | 0.00 | 0.01 | 0.00 | 76 | 1014.6 |
| 20260904132523 | 54 | 7 | 4.0 | 7.0 | 0.00 | 0.01 | 0.00 | 77 | 1014.6 |
| 20260904131520 | 55 | 6 | 4.0 | 10.0 | 0.00 | 0.01 | 0.00 | 76 | 1014.4 |
| 20260904130520 | 55 | 6 | 5.0 | 9.0 | 0.00 | 0.01 | 0.00 | 76 | 1014.2 |
| 20260904125541 | 55 | 10 | 5.0 | 9.0 | 0.00 | 0.01 | 0.00 | 76 | 1014.1 |
| 20260904124521 | 55 | 358 | 4.0 | 9.0 | 0.00 | 0.01 | 0.00 | 76 | 1014.0 |
| 20260904123520 | 55 | 4 | 4.0 | 9.0 | 0.00 | 0.01 | 0.00 | 76 | 1013.9 |
| 20260904122520 | 55 | 6 | 4.0 | 9.0 | 0.00 | 0.01 | 0.00 | 76 | 1013.8 |
| 20260904121521 | 55 | 6 | 4.0 | 8.0 | 0.00 | 0.01 | 0.00 | 77 | 1013.7 |
| 20260904120521 | 55 | 4 | 4.0 | 9.0 | 0.00 | 0.01 | 0.00 | 77 | 1013.6 |
| 20260904115521 | 55 | 6 | 5.0 | 10.0 | 0.00 | 0.01 | 0.00 | 77 | 1013.4 |
| 20260904114522 | 55 | 8 | 4.0 | 8.0 | 0.00 | 0.01 | 0.00 | 78 | 1013.3 |
| 20260904113523 | 55 | 8 | 4.0 | 9.0 | 0.00 | 0.01 | 0.00 | 78 | 1013.1 |
| 20260904112519 | 55 | 4 | 5.0 | 12.0 | 0.00 | 0.01 | 0.00 | 78 | 1013.0 |
| 20260904111519 | 55 | 6 | 5.0 | 9.0 | 0.00 | 0.01 | 0.00 | 78 | 1012.9 |
| 20260904110521 | 56 | 8 | 5.0 | 11.0 | 0.00 | 0.01 | 0.00 | 77 | 1012.7 |
| 20260904105521 | 56 | 5 | 5.0 | 11.0 | 0.00 | 0.01 | 0.00 | 77 | 1012.6 |
| 20260904104519 | 56 | 11 | 5.0 | 9.0 | 0.00 | 0.01 | 0.00 | 78 | 1012.5 |
| 20260904103518 | 56 | 11 | 5.0 | 12.0 | 0.00 | 0.01 | 0.00 | 78 | 1012.4 |
| 20260904102540 | 56 | 10 | 5.0 | 10.0 | 0.00 | 0.01 | 0.00 | 77 | 1012.4 |
| 20260904101520 | 56 | 7 | 4.0 | 7.0 | 0.00 | 0.01 | 0.00 | 77 | 1012.4 |
| 20260904100518 | 56 | 7 | 4.0 | 8.0 | 0.00 | 0.01 | 0.00 | 77 | 1012.3 |
| 20260904095518 | 56 | 2 | 3.0 | 7.0 | 0.00 | 0.01 | 0.00 | 76 | 1012.2 |
| 20260904094518 | 56 | 3 | 3.0 | 6.0 | 0.00 | 0.01 | 0.00 | 76 | 1012.0 |
| 20260904093518 | 56 | 359 | 4.0 | 9.0 | 0.00 | 0.01 | 0.00 | 76 | 1011.9 |
| 20260904092518 | 57 | 1 | 4.0 | 8.0 | 0.00 | 0.01 | 0.00 | 75 | 1011.9 |
| 20260904091520 | 57 | 358 | 5.0 | 13.0 | 0.00 | 0.01 | 0.00 | 75 | 1011.9 |
| 20260904090540 | 57 | 4 | 5.0 | 11.0 | 0.00 | 0.01 | 0.00 | 75 | 1011.8 |
| 20260904085519 | 57 | 358 | 5.0 | 10.0 | 0.00 | 0.01 | 0.00 | 75 | 1011.6 |
| 20260904084519 | 57 | 8 | 5.0 | 9.0 | 0.00 | 0.01 | 0.00 | 76 | 1011.5 |
| 20260904083518 | 57 | 6 | 5.0 | 10.0 | 0.00 | 0.01 | 0.00 | 77 | 1011.5 |
| 20260904082521 | 57 | 11 | 6.0 | 11.0 | 0.00 | 0.01 | 0.00 | 77 | 1011.4 |
| 20260904081521 | 57 | 359 | 5.0 | 11.0 | 0.00 | 0.01 | 0.00 | 77 | 1011.4 |
| 20260904080519 | 57 | 356 | 5.0 | 11.0 | 0.00 | 0.01 | 0.00 | 78 | 1011.2 |
| 20260904075520 | 57 | 357 | 4.0 | 9.0 | 0.00 | 0.01 | 0.00 | 78 | 1011.2 |
| 20260904074518 | 58 | 4 | 5.0 | 11.0 | 0.00 | 0.01 | 0.00 | 79 | 1011.1 |
| 20260904073517 | 58 | 6 | 5.0 | 11.0 | 0.00 | 0.01 | 0.00 | 79 | 1011.0 |
| 20260904072540 | 58 | 359 | 5.0 | 9.0 | 0.00 | 0.01 | 0.00 | 79 | 1011.0 |
| 20260904071521 | 58 | 11 | 6.0 | 9.0 | 0.00 | 0.01 | 0.00 | 79 | 1010.9 |
| 20260904070518 | 58 | 6 | 4.0 | 9.0 | 0.00 | 0.01 | 0.00 | 79 | 1010.8 |
| 20260904065518 | 58 | 9 | 5.0 | 9.0 | 0.00 | 0.01 | 0.01 | 79 | 1010.6 |
| 20260904064559 | 58 | 3 | 6.0 | 14.0 | 0.00 | 0.01 | 0.01 | 79 | 1010.6 |
| 20260904063518 | 58 | 4 | 5.0 | 10.0 | 0.00 | 0.01 | 0.01 | 79 | 1010.5 |
| 20260904062520 | 58 | 7 | 5.0 | 9.0 | 0.00 | 0.01 | 0.01 | 79 | 1010.5 |
| 20260904061518 | 58 | 3 | 6.0 | 13.0 | 0.00 | 0.01 | 0.01 | 79 | 1010.4 |
| 20260904060518 | 58 | 1 | 5.0 | 11.0 | 0.00 | 0.01 | 0.01 | 78 | 1010.3 |
| 20260904055520 | 58 | 1 | 4.0 | 10.0 | 0.00 | 0.01 | 0.01 | 78 | 1010.1 |
| 20260904054519 | 58 | 3 | 5.0 | 12.0 | 0.00 | 0.01 | 0.01 | 78 | 1010.0 |
| 20260904053516 | 58 | 4 | 5.0 | 9.0 | 0.00 | 0.01 | 0.01 | 78 | 1009.9 |
| 20260904052519 | 59 | 3 | 5.0 | 11.0 | 0.00 | 0.01 | 0.01 | 78 | 1009.9 |
| 20260904051520 | 59 | 5 | 4.0 | 9.0 | 0.00 | 0.01 | 0.01 | 78 | 1009.9 |
| 20260904050517 | 59 | 4 | 4.0 | 8.0 | 0.00 | 0.01 | 0.01 | 79 | 1009.8 |
| 20260904045518 | 59 | 3 | 5.0 | 9.0 | 0.00 | 0.01 | 0.01 | 80 | 1009.7 |
| 20260904044517 | 59 | 355 | 4.0 | 11.0 | 0.00 | 0.01 | 0.01 | 80 | 1009.7 |
| 20260904043520 | 59 | 1 | 4.0 | 7.0 | 0.00 | 0.01 | 0.01 | 79 | 1009.6 |
| 20260904042520 | 59 | 356 | 4.0 | 8.0 | 0.00 | 0.01 | 0.01 | 79 | 1009.5 |
| 20260904041518 | 60 | 360 | 4.0 | 8.0 | 0.00 | 0.01 | 0.01 | 79 | 1009.4 |
| 20260904040518 | 60 | 358 | 4.0 | 9.0 | 0.00 | 0.01 | 0.01 | 79 | 1009.4 |
| 20260904035518 | 60 | 3 | 4.0 | 10.0 | 0.00 | 0.01 | 0.01 | 80 | 1009.3 |
| 20260904034518 | 60 | 14 | 3.0 | 6.0 | 0.00 | 0.01 | 0.01 | 79 | 1009.1 |
| 20260904033518 | 60 | 21 | 3.0 | 6.0 | 0.00 | 0.01 | 0.01 | 80 | 1009.0 |
| 20260904032518 | 61 | 16 | 1.0 | 5.0 | 0.00 | 0.01 | 0.01 | 80 | 1008.9 |
| 20260904031540 | 61 | 16 | 3.0 | 7.0 | 0.00 | 0.01 | 0.01 | 78 | 1008.8 |
| 20260904030520 | 61 | 34 | 1.0 | 5.0 | 0.00 | 0.01 | 0.01 | 80 | 1008.7 |
| 20260904025519 | 61 | 29 | 2.0 | 4.0 | 0.00 | 0.01 | 0.01 | 81 | 1008.5 |
| 20260904024517 | 62 | 18 | 3.0 | 9.0 | 0.00 | 0.01 | 0.01 | 79 | 1008.5 |
| 20260904023519 | 62 | 25 | 2.0 | 6.0 | 0.00 | 0.01 | 0.01 | 81 | 1008.4 |
| 20260904022520 | 61 | 23 | 2.0 | 5.0 | 0.00 | 0.01 | 0.01 | 82 | 1008.3 |
| 20260904021539 | 61 | 15 | 1.0 | 3.0 | 0.00 | 0.01 | 0.01 | 89 | 1008.1 |
| 20260904020520 | 61 | 332 | 1.0 | 3.0 | 0.00 | 0.01 | 0.01 | 89 | 1008.0 |
| 20260904015516 | 61 | 295 | 1.0 | 4.0 | 0.00 | 0.01 | 0.01 | 89 | 1008.0 |
| 20260904014537 | 61 | 287 | 1.0 | 2.0 | 0.00 | 0.01 | 0.01 | 90 | 1007.9 |
| 20260904013520 | 61 | 282 | 0.0 | 3.0 | 0.00 | 0.01 | 0.01 | 89 | 1007.8 |
| 20260904012520 | 61 | 0.0 | 0.0 | 0.00 | 0.01 | 0.01 | 88 | 1007.8 | |
| 20260904011517 | 61 | 274 | 0.0 | 2.0 | 0.01 | 0.01 | 0.01 | 87 | 1007.8 |
| 20260904010519 | 61 | 278 | 0.0 | 2.0 | 0.01 | 0.01 | 0.01 | 87 | 1007.6 |
| 20260904005559 | 61 | 279 | 0.0 | 2.0 | 0.01 | 0.07 | 0.01 | 88 | 1007.6 |
| 20260904004518 | 61 | 278 | 0.0 | 2.0 | 0.01 | 0.13 | 0.01 | 87 | 1007.5 |
| 20260904003521 | 61 | 0.0 | 0.0 | 0.01 | 0.13 | 0.01 | 89 | 1007.5 | |
| 20260904002518 | 61 | 0.0 | 0.0 | 0.01 | 0.13 | 0.01 | 89 | 1007.4 | |
| 20260904001620 | 62 | 205 | 0.0 | 1.0 | 0.00 | 0.13 | 0.00 | 87 | 1007.5 |
| 20260904000520 | 62 | 96 | 2.0 | 5.0 | 0.00 | 0.28 | 0.00 | 80 | 1007.3 |
| 20260903235519 | 62 | 71 | 0.0 | 4.0 | 0.00 | 0.28 | 0.00 | 80 | 1007.2 |
| 20260903234701 | 63 | 76 | 2.0 | 5.0 | 0.00 | 0.28 | 0.00 | 76 | 1007.1 |
| 20260903233518 | 64 | 352 | 1.0 | 3.0 | 0.00 | 0.28 | 0.00 | 73 | 1006.9 |
| 20260903232519 | 66 | 340 | 2.0 | 6.0 | 0.00 | 0.28 | 0.00 | 71 | 1006.9 |
| 20260903231519 | 67 | 346 | 0.0 | 3.0 | 0.00 | 0.28 | 0.00 | 73 | 1006.8 |
| 20260903230520 | 67 | 80 | 1.0 | 2.0 | 0.00 | 0.28 | 0.00 | 74 | 1006.7 |
| 20260903225541 | 66 | 286 | 0.0 | 2.0 | 0.00 | 0.28 | 0.00 | 76 | 1006.8 |
| 20260903224518 | 66 | 219 | 1.0 | 3.0 | 0.00 | 0.28 | 0.00 | 76 | 1006.8 |
| 20260903223517 | 65 | 0.0 | 0.0 | 0.00 | 0.28 | 0.00 | 80 | 1006.7 | |
| 20260903222520 | 64 | 182 | 0.0 | 2.0 | 0.00 | 0.28 | 0.00 | 81 | 1006.7 |
| 20260903221520 | 65 | 203 | 0.0 | 2.0 | 0.00 | 0.28 | 0.00 | 82 | 1006.7 |
| 20260903220559 | 65 | 15 | 1.0 | 5.0 | 0.00 | 0.28 | 0.00 | 81 | 1006.8 |
| 20260903215519 | 64 | 24 | 0.0 | 2.0 | 0.00 | 0.28 | 0.00 | 79 | 1006.8 |
| 20260903214520 | 65 | 113 | 1.0 | 4.0 | 0.00 | 0.28 | 0.00 | 80 | 1006.8 |
| 20260903213518 | 66 | 13 | 0.0 | 1.0 | 0.00 | 0.28 | 0.00 | 79 | 1006.7 |
| 20260903212520 | 65 | 164 | 0.0 | 2.0 | 0.00 | 0.28 | 0.00 | 78 | 1006.7 |
| 20260903211519 | 65 | 234 | 1.0 | 3.0 | 0.00 | 0.28 | 0.00 | 79 | 1006.8 |
| 20260903210521 | 65 | 193 | 0.0 | 2.0 | 0.00 | 0.28 | 0.00 | 79 | 1006.8 |
| 20260903205517 | 64 | 185 | 0.0 | 2.0 | 0.00 | 0.28 | 0.00 | 83 | 1006.8 |
| 20260903204538 | 63 | 153 | 0.0 | 2.0 | 0.00 | 0.28 | 0.00 | 83 | 1006.8 |
| 20260903203516 | 63 | 170 | 0.0 | 1.0 | 0.00 | 0.28 | 0.00 | 83 | 1007.0 |
| 20260903202519 | 63 | 185 | 0.0 | 1.0 | 0.00 | 0.28 | 0.00 | 84 | 1007.0 |
| 20260903201518 | 63 | 198 | 1.0 | 3.0 | 0.00 | 0.28 | 0.00 | 81 | 1007.0 |
| 20260903200520 | 64 | 308 | 1.0 | 3.0 | 0.00 | 0.28 | 0.00 | 77 | 1007.0 |
| 20260903195517 | 63 | 4 | 1.0 | 3.0 | 0.00 | 0.28 | 0.00 | 79 | 1006.9 |
| 20260903194517 | 62 | 15 | 0.0 | 4.0 | 0.00 | 0.28 | 0.00 | 80 | 1006.9 |
| 20260903193517 | 62 | 252 | 1.0 | 5.0 | 0.00 | 0.28 | 0.00 | 80 | 1006.9 |
| 20260903192519 | 61 | 241 | 1.0 | 5.0 | 0.00 | 0.28 | 0.00 | 82 | 1006.9 |
| 20260903191520 | 60 | 241 | 2.0 | 5.0 | 0.00 | 0.28 | 0.00 | 83 | 1006.9 |
| 20260903190518 | 60 | 221 | 2.0 | 5.0 | 0.00 | 0.28 | 0.00 | 83 | 1007.0 |
| 20260903185518 | 59 | 236 | 2.0 | 4.0 | 0.00 | 0.28 | 0.00 | 83 | 1007.0 |
| 20260903184520 | 59 | 276 | 2.0 | 5.0 | 0.00 | 0.28 | 0.00 | 84 | 1007.1 |